"2011/01/01",1000.3,1009.1, 992.6
"2011/01/02",1015.8,1018.7,1009.0
"2011/01/03",1016.4,1018.8,1013.0
"2011/01/04",1010.3,1013.1,1007.1
"2011/01/05",1011.3,1015.2,1004.5
"2011/01/06",1008.1,1012.4,1004.4
"2011/01/07",1015.3,1018.7,1012.2
"2011/01/08",1018.2,1020.8,1013.5
"2011/01/09",1008.8,1013.6,1004.0
"2011/01/10",1013.1,1015.2,1010.0
"2011/01/11",1013.4,1015.6,1010.3
"2011/01/12",1008.0,1011.8,1004.1
"2011/01/13",1017.0,1021.1,1011.8
"2011/01/14",1019.3,1022.4,1015.4
"2011/01/15",1007.3,1015.7, 998.1
"2011/01/16",1001.5,1006.0, 996.5
"2011/01/17",1011.0,1015.9,1005.9
"2011/01/18",1017.1,1018.8,1014.8
"2011/01/19",1014.5,1016.7,1011.7
"2011/01/20",1012.4,1014.9,1008.8
"2011/01/21",1016.3,1018.7,1014.1
"2011/01/22",1015.4,1017.4,1012.5
"2011/01/23",1019.9,1021.9,1017.3
"2011/01/24",1015.3,1019.5,1012.2
"2011/01/25",1018.3,1021.6,1014.0
"2011/01/26",1019.2,1021.0,1016.3
"2011/01/27",1021.3,1023.4,1019.1
"2011/01/28",1022.1,1024.1,1020.2
"2011/01/29",1015.7,1021.4,1009.6
"2011/01/30",1012.8,1015.8,1009.3
"2011/01/31",1015.1,1016.4,1013.7
"2011/02/01",1015.7,1020.9,1013.4
"2011/02/02",1022.0,1024.3,1020.7
"2011/02/03",1021.6,1023.4,1020.2
"2011/02/04",1018.2,1020.4,1015.8
"2011/02/05",1017.7,1019.9,1015.1
"2011/02/06",1016.6,1021.6,1008.1
"2011/02/07",1008.7,1013.5,1006.0
"2011/02/08",1012.5,1014.8,1009.8
"2011/02/09",1006.1,1010.2,1002.6
"2011/02/10",1014.3,1017.3,1009.8
"2011/02/11",1015.9,1018.6,1010.7
"2011/02/12",1006.8,1010.7,1002.2
"2011/02/13",1016.4,1022.5,1010.3
"2011/02/14",1020.8,1024.6,1014.3
"2011/02/15",1019.2,1027.2,1011.9
"2011/02/16",1027.4,1029.4,1025.5
"2011/02/17",1019.7,1025.5,1010.4
"2011/02/18",1006.5,1017.5, 996.7
"2011/02/19",1022.4,1024.7,1017.4
"2011/02/20",1023.2,1024.3,1021.8
"2011/02/21",1024.9,1026.0,1023.7
"2011/02/22",1026.8,1029.1,1025.0
"2011/02/23",1027.9,1029.7,1026.1
"2011/02/24",1022.9,1026.2,1018.3
"2011/02/25",1014.8,1021.5,1009.8
"2011/02/26",1029.6,1032.9,1021.4
"2011/02/27",1024.0,1031.5,1018.8
"2011/02/28",1016.8,1020.6,1014.1
"2011/03/01",1009.9,1015.5,1002.3
"2011/03/02",1004.9,1008.7,1002.3
"2011/03/03",1011.1,1013.1,1008.6
"2011/03/04",1013.9,1017.9,1010.9
"2011/03/05",1020.2,1022.5,1017.8
"2011/03/06",1013.1,1018.8,1008.6
"2011/03/07",1007.0,1009.9,1003.3
"2011/03/08",1012.1,1014.1,1008.8
"2011/03/09",1013.0,1016.3,1008.9
"2011/03/10",1016.8,1019.4,1014.5
"2011/03/11",1015.3,1019.0,1011.1
"2011/03/12",1022.6,1025.1,1018.7
"2011/03/13",1021.0,1023.0,1018.6
"2011/03/14",1015.0,1019.8,1011.7
"2011/03/15",1009.2,1013.6,1000.5
"2011/03/16",1002.3,1011.1, 997.5
"2011/03/17",1014.1,1019.2,1011.0
"2011/03/18",1023.8,1026.3,1019.2
"2011/03/19",1017.9,1024.0,1013.7
"2011/03/20",1015.1,1019.2,1009.4
"2011/03/21",1011.3,1015.3,1008.4
"2011/03/22",1013.3,1015.1,1011.8
"2011/03/23",1016.3,1020.3,1012.3
"2011/03/24",1019.9,1022.0,1018.0
"2011/03/25",1017.3,1021.0,1011.3
"2011/03/26",1015.3,1021.9,1009.7
"2011/03/27",1023.8,1027.0,1021.7
"2011/03/28",1026.6,1029.1,1024.4
"2011/03/29",1022.2,1025.4,1018.6
"2011/03/30",1017.3,1019.7,1014.7
"2011/03/31",1018.0,1022.5,1015.6
"2011/04/01",1022.2,1025.2,1018.8
"2011/04/02",1014.0,1018.9,1009.8
"2011/04/03",1017.6,1019.3,1014.7
"2011/04/04",1021.2,1025.6,1018.8
"2011/04/05",1025.2,1027.0,1022.7
"2011/04/06",1026.3,1028.1,1024.1
"2011/04/07",1024.8,1027.0,1021.9
"2011/04/08",1019.1,1022.1,1016.7
"2011/04/09",1017.5,1020.4,1014.1
"2011/04/10",1017.1,1020.0,1014.2
"2011/04/11",1009.3,1014.3,1004.4
"2011/04/12",1014.8,1018.5,1010.2
"2011/04/13",1014.4,1018.0,1010.6
"2011/04/14",1012.5,1014.3,1009.8
"2011/04/15",1009.0,1012.1,1006.0
"2011/04/16",1005.6,1011.1,1001.3
"2011/04/17",1013.0,1015.4,1010.9
"2011/04/18",1008.5,1012.3,1005.6
"2011/04/19",1001.8,1006.3, 997.5
"2011/04/20",1012.9,1021.8,1004.5
"2011/04/21",1022.6,1024.2,1021.5
"2011/04/22",1019.1,1021.8,1017.1
"2011/04/23",1009.8,1017.2,1001.3
"2011/04/24",1004.8,1010.4, 999.2
"2011/04/25",1009.3,1013.3,1005.2
"2011/04/26",1013.0,1015.5,1010.6
"2011/04/27",1006.4,1010.7,1001.1
"2011/04/28", 998.5,1007.1, 994.4
"2011/04/29",1012.6,1018.8,1007.0
"2011/04/30",1017.1,1021.0,1012.8
"2011/05/01",1007.0,1013.2, 999.5
"2011/05/02",1007.0,1011.8,1001.1
"2011/05/03",1012.9,1015.2,1011.0
"2011/05/04",1012.3,1015.8,1010.3
"2011/05/05",1019.1,1022.5,1015.6
"2011/05/06",1022.6,1024.5,1020.7
"2011/05/07",1014.6,1020.7,1008.3
"2011/05/08",1009.3,1013.5,1006.3
"2011/05/09",1014.4,1018.1,1008.1
"2011/05/10",1004.7,1009.5,1001.5
"2011/05/11",1011.5,1013.7,1008.9
"2011/05/12",1006.8,1011.7, 994.9
"2011/05/13", 995.5,1000.7, 993.4
"2011/05/14",1004.1,1011.3,1000.4
"2011/05/15",1015.9,1018.4,1011.2
"2011/05/16",1016.1,1018.6,1013.1
"2011/05/17",1011.5,1013.3,1009.1
"2011/05/18",1016.7,1020.0,1012.6
"2011/05/19",1018.2,1020.6,1015.7
"2011/05/20",1014.5,1017.2,1011.9
"2011/05/21",1011.3,1013.7,1009.6
"2011/05/22",1011.2,1016.0,1007.9
"2011/05/23",1018.4,1020.3,1015.8
"2011/05/24",1018.8,1020.6,1017.7
"2011/05/25",1018.7,1020.9,1016.5
"2011/05/26",1022.5,1023.8,1020.5
"2011/05/27",1020.6,1022.5,1018.9
"2011/05/28",1015.9,1019.3,1012.9
"2011/05/29",1008.0,1013.1, 998.5
"2011/05/30", 996.9,1005.4, 992.7
"2011/05/31",1013.0,1018.9,1005.2
"2011/06/01",1019.4,1020.8,1017.8
"2011/06/02",1017.8,1020.1,1014.1
"2011/06/03",1013.2,1014.8,1011.5
"2011/06/04",1010.1,1012.4,1007.6
"2011/06/05",1006.7,1008.9,1003.7
"2011/06/06",1007.1,1010.0,1004.8
"2011/06/07",1009.2,1010.3,1007.5
"2011/06/08",1007.7,1009.2,1006.5
"2011/06/09",1009.0,1010.6,1007.3
"2011/06/10",1007.8,1009.5,1006.1
"2011/06/11",1002.7,1006.3, 998.9
"2011/06/12",1006.8,1007.9,1005.0
"2011/06/13",1003.2,1005.8,1001.1
"2011/06/14",1007.3,1009.9,1004.8
"2011/06/15",1012.6,1014.6,1009.9
"2011/06/16",1014.6,1016.1,1013.1
"2011/06/17",1011.3,1013.1,1010.3
"2011/06/18",1010.1,1012.1,1008.3
"2011/06/19",1010.9,1013.3,1008.7
"2011/06/20",1012.2,1013.3,1010.7
"2011/06/21",1010.1,1012.9,1007.0
"2011/06/22",1008.4,1010.8,1005.9
"2011/06/23",1004.6,1007.7,1002.6
"2011/06/24",1003.8,1007.9,1002.2
"2011/06/25",1014.2,1019.0,1007.6
"2011/06/26",1018.1,1019.1,1016.7
"2011/06/27",1015.4,1017.6,1012.9
"2011/06/28",1012.1,1013.3,1011.0
"2011/06/29",1013.5,1015.0,1011.6
"2011/06/30",1011.7,1014.4,1008.2
"2011/07/01",1005.6,1008.3,1003.2
"2011/07/02",1004.6,1005.5,1003.4
"2011/07/03",1004.9,1006.2,1003.5
"2011/07/04", 999.9,1003.6, 997.3
"2011/07/05",1000.5,1004.1, 998.3
"2011/07/06",1006.2,1007.6,1003.6
"2011/07/07",1006.6,1008.2,1005.3
"2011/07/08",1011.0,1013.7,1006.7
"2011/07/09",1014.2,1015.7,1012.9
"2011/07/10",1015.1,1016.5,1013.3
"2011/07/11",1016.4,1017.6,1014.6
"2011/07/12",1016.1,1017.4,1014.2
"2011/07/13",1015.1,1016.5,1013.0
"2011/07/14",1014.1,1015.5,1012.2
"2011/07/15",1013.2,1014.3,1011.4
"2011/07/16",1011.7,1013.5,1009.8
"2011/07/17",1010.1,1011.1,1008.5
"2011/07/18",1010.5,1011.2,1009.4
"2011/07/19",1007.2,1010.3,1001.8
"2011/07/20", 998.1,1001.9, 995.7
"2011/07/21",1005.6,1010.4, 997.9
"2011/07/22",1010.1,1010.9,1009.1
"2011/07/23",1008.6,1010.2,1007.1
"2011/07/24",1011.2,1013.9,1008.0
"2011/07/25",1014.6,1016.1,1013.4
"2011/07/26",1015.9,1017.1,1014.5
"2011/07/27",1015.8,1018.2,1013.6
"2011/07/28",1011.6,1014.0,1009.5
"2011/07/29",1007.1,1009.7,1004.8
"2011/07/30",1005.5,1007.3,1004.2
"2011/07/31",1009.0,1011.7,1006.5
"2011/08/01",1013.6,1015.8,1011.4
"2011/08/02",1015.9,1016.7,1015.1
"2011/08/03",1015.1,1016.2,1013.6
"2011/08/04",1014.4,1015.2,1013.4
"2011/08/05",1013.4,1014.5,1012.2
"2011/08/06",1012.3,1013.4,1010.6
"2011/08/07",1012.8,1013.9,1011.3
"2011/08/08",1012.0,1013.2,1010.3
"2011/08/09",1011.3,1012.7,1009.5
"2011/08/10","  * ","  * ","  * "
"2011/08/11",1004.6,1006.2,1002.2
"2011/08/12",1005.6,1007.9,1004.6
"2011/08/13",1009.8,1011.8,1007.7
"2011/08/14",1011.4,1011.8,1011.1
"2011/08/15",1006.6,1007.4,1005.7
"2011/08/16",1005.5,1007.1,1003.5
"2011/08/17",1005.1,1006.6,1003.5
"2011/08/18",1004.4,1005.6,1002.6
"2011/08/19",1008.8,1012.0,1004.3
"2011/08/20",1012.5,1013.5,1011.0
"2011/08/21",1011.8,1013.0,1010.7
"2011/08/22",1012.2,1013.4,1011.3
"2011/08/23",1012.5,1014.2,1010.9
"2011/08/24",1014.7,1016.1,1013.4
"2011/08/25",1015.4,1016.4,1014.0
"2011/08/26",1015.7,1016.5,1015.2
"2011/08/27","  * ","  * ","  * "
"2011/08/28","  * ","  * ","  * "
"2011/08/29","  * ","  * ","  * "
"2011/08/30","  * ","  * ","  * "
"2011/08/31","  * ","  * ","  * "
"2011/09/01",1009.2,1010.2,1008.3
"2011/09/02",1008.0,1008.9,1007.0
"2011/09/03",1009.6,1011.5,1007.9
"2011/09/04",1008.3,1010.8,1005.3
"2011/09/05",1000.8,1005.4, 997.8
"2011/09/06",1000.5,1004.6, 997.3
"2011/09/07",1007.0,1012.2,1004.4
"2011/09/08",1015.4,1018.9,1012.1
"2011/09/09",1018.8,1020.5,1017.0
"2011/09/10",1020.5,1022.3,1019.5
"2011/09/11",1022.6,1024.0,1021.6
"2011/09/12",1019.2,1021.9,1016.9
"2011/09/13",1015.8,1017.4,1014.0
"2011/09/14",1015.4,1017.2,1013.8
"2011/09/15",1016.6,1017.8,1014.9
"2011/09/16",1014.4,1016.7,1012.4
"2011/09/17",1012.8,1014.0,1011.2
"2011/09/18",1011.4,1013.1,1009.5
"2011/09/19",1011.0,1014.9,1008.7
"2011/09/20",1010.9,1014.6,1006.9
"2011/09/21", 996.4,1007.1, 980.7
"2011/09/22", 998.9,1006.8, 990.8
"2011/09/23",1010.7,1014.9,1006.5
"2011/09/24",1020.4,1025.1,1014.9
"2011/09/25",1025.7,1027.1,1024.8
"2011/09/26",1022.4,1025.3,1018.8
"2011/09/27",1019.5,1021.5,1018.0
"2011/09/28",1019.3,1021.3,1017.5
"2011/09/29",1016.7,1018.9,1014.1
"2011/09/30",1008.2,1014.2,1004.1
"2011/10/01",1013.9,1018.5,1008.1
"2011/10/02",1016.5,1018.3,1014.3
"2011/10/03",1019.0,1022.9,1015.4
"2011/10/04",1024.3,1025.9,1022.8
"2011/10/05",1019.6,1024.0,1009.5
"2011/10/06",1006.5,1009.5,1004.3
"2011/10/07",1011.8,1018.6,1007.2
"2011/10/08",1022.4,1024.9,1018.6
"2011/10/09",1025.7,1027.2,1024.5
"2011/10/10",1020.3,1024.5,1017.5
"2011/10/11",1017.6,1018.9,1016.0
"2011/10/12",1016.8,1018.3,1014.7
"2011/10/13",1019.2,1021.0,1018.0
"2011/10/14",1021.7,1022.5,1020.7
"2011/10/15","  * ","  * ","  * "
"2011/10/16","  * ","  * ","  * "
"2011/10/17","  * ","  * ","  * "
"2011/10/18","  * ","  * ","  * "
"2011/10/19","  * ","  * ","  * "
"2011/10/20","  * ","  * ","  * "
"2011/10/21","  * ","  * ","  * "
"2011/10/22","  * ","  * ","  * "
"2011/10/23","  * ","  * ","  * "
"2011/10/24","  * ","  * ","  * "
"2011/10/25","  * ","  * ","  * "
"2011/10/26","  * ","  * ","  * "
"2011/10/27","  * ","  * ","  * "
"2011/10/28","  * ","  * ","  * "
"2011/10/29","  * ","  * ","  * "
"2011/10/30","  * ","  * ","  * "
"2011/10/31","  * ","  * ","  * "
"2011/11/01",1029.3,1031.9,1025.0
"2011/11/02",1029.4,1032.0,1026.9
"2011/11/03",1026.4,1028.0,1024.6
"2011/11/04",1028.4,1030.3,1027.5
"2011/11/05",1023.9,1027.5,1020.0
"2011/11/06",1015.3,1020.1,1011.7
"2011/11/07",1012.8,1014.8,1011.0
"2011/11/08",1016.0,1018.5,1013.3
"2011/11/09",1019.2,1020.7,1017.4
"2011/11/10",1021.0,1023.0,1019.1
"2011/11/11",1018.5,1022.7,1013.9
"2011/11/12",1015.0,1016.8,1012.9
"2011/11/13",1014.1,1015.5,1012.0
"2011/11/14",1015.5,1017.1,1014.1
"2011/11/15",1020.2,1023.7,1016.8
"2011/11/16",1025.8,1027.9,1023.2
"2011/11/17",1027.0,1029.8,1023.0
"2011/11/18",1024.7,1029.2,1018.1
"2011/11/19",1009.0,1018.3, 998.4
"2011/11/20",1004.6,1013.7, 998.3
"2011/11/21",1018.2,1022.9,1013.6
"2011/11/22",1025.2,1026.8,1022.6
"2011/11/23",1020.1,1025.3,1012.2
"2011/11/24",1011.1,1016.4,1008.0
"2011/11/25",1020.0,1025.8,1016.2
"2011/11/26",1028.4,1030.4,1025.7
"2011/11/27",1026.0,1028.0,1023.7
"2011/11/28",1025.9,1028.1,1024.8
"2011/11/29",1020.9,1024.9,1017.8
"2011/11/30",1017.4,1019.4,1015.2
"2011/12/01",1020.3,1023.3,1016.4
"2011/12/02",1023.7,1025.3,1022.1
"2011/12/03",1007.9,1022.1, 999.0
"2011/12/04",1010.6,1017.6, 999.3
"2011/12/05",1022.1,1028.3,1017.0
"2011/12/06",1027.9,1031.4,1024.2
"2011/12/07",1021.0,1024.3,1015.7
"2011/12/08",1012.7,1015.8,1010.3
"2011/12/09",1014.1,1019.4,1009.1
"2011/12/10",1019.4,1022.5,1015.3
"2011/12/11",1017.0,1020.2,1014.3
"2011/12/12",1019.0,1020.9,1016.8
"2011/12/13",1024.5,1027.1,1019.0
"2011/12/14",1021.5,1026.4,1016.1
"2011/12/15",1012.5,1016.2,1009.0
"2011/12/16",1011.5,1016.7,1008.0
"2011/12/17",1020.2,1022.7,1016.2
"2011/12/18",1019.7,1021.5,1017.6
"2011/12/19",1019.0,1020.2,1017.4
"2011/12/20",1021.8,1024.4,1019.4
"2011/12/21",1022.1,1024.7,1017.6
"2011/12/22",1011.7,1017.6,1007.2
"2011/12/23",1010.4,1013.5,1006.9
"2011/12/24",1010.5,1013.9,1007.2
"2011/12/25",1010.5,1012.8,1007.2
"2011/12/26",1017.0,1021.9,1012.2
"2011/12/27",1024.0,1026.0,1021.4
"2011/12/28",1025.9,1028.1,1023.8
"2011/12/29",1020.0,1024.5,1016.2
"2011/12/30",1020.0,1023.6,1017.2
"2011/12/31",1023.8,1025.0,1022.7
